DW3478 Weather Reports


time (UTC)temp
C
wind
direction
speed
KPH
gust
KPH
rain 1hr
cm
rain 24hr
cm
rain mn
cm
humidity
%
barometer
mb
20260503234305 16 100 1.6 4.8 0.00 0.03 0.00 96 1013.5
20260503233805 16 65 1.6 3.2 0.00 0.03 0.00 96 1013.5
20260503233304 16 65 0.0 1.6 0.00 0.03 0.00 96 1013.6
20260503232804 16 65 0.0 1.6 0.00 0.03 0.00 96 1013.5
20260503232305 16 65 0.0 1.6 0.00 0.03 0.00 96 1013.4
20260503231805 16 65 1.6 3.2 0.00 0.03 0.00 96 1013.5
20260503231304 16 71 1.6 4.8 0.00 0.03 0.00 96 1013.6
20260503230805 16 89 3.2 4.8 0.00 0.03 0.00 96 1013.5
20260503222804 16 85 1.6 4.8 0.00 0.03 0.03 96 1013.6
20260503222304 16 79 3.2 4.8 0.00 0.03 0.03 96 1013.5
20260503221305 16 95 1.6 4.8 0.00 0.03 0.03 96 1013.6
20260503220805 16 95 3.2 4.8 0.00 0.03 0.03 96 1013.3
20260503220304 16 80 1.6 4.8 0.00 0.03 0.03 96 1013.7
20260503212804 15 69 1.6 3.2 0.00 0.03 0.03 96 1013.1
20260503212305 15 69 3.2 4.8 0.00 0.03 0.03 96 1012.9
20260503210804 15 150 1.6 3.2 0.00 0.03 0.03 96 1013.1
20260503202804 16 150 1.6 4.8 0.00 0.03 0.03 96 1012.8
20260503195805 15 93 3.2 4.8 0.00 0.03 0.03 96 1012.7
20260503195305 15 79 3.2 4.8 0.00 0.03 0.03 96 1012.7
20260503194805 15 109 1.6 4.8 0.00 0.03 0.03 96 1012.5
20260503194304 15 109 3.2 4.8 0.00 0.03 0.03 96 1012.5
20260503193805 16 116 1.6 3.2 0.00 0.03 0.03 96 1012.4
20260503193304 16 129 1.6 3.2 0.00 0.03 0.03 96 1012.4
20260503192805 16 165 1.6 4.8 0.00 0.03 0.03 96 1012.2
20260503191304 16 207 3.2 4.8 0.00 0.03 0.03 96 1012.4
20260503190805 16 141 3.2 4.8 0.00 0.03 0.03 96 1012.3
20260503190304 16 164 3.2 4.8 0.00 0.03 0.03 96 1012.4
20260503185805 16 163 3.2 4.8 0.00 0.03 0.03 96 1012.1
20260503185305 16 201 3.2 4.8 0.00 0.03 0.03 95 1012.0
20260503184304 16 126 1.6 4.8 0.00 0.03 0.03 95 1012.0
20260503183805 16 114 3.2 4.8 0.00 0.03 0.03 95 1012.3
20260503175804 16 153 1.6 3.2 0.00 0.03 0.03 96 1012.3
20260503175305 16 89 1.6 3.2 0.00 0.03 0.03 96 1012.3
20260503174804 16 101 1.6 3.2 0.00 0.03 0.03 95 1012.4
20260503174305 16 101 1.6 3.2 0.00 0.03 0.03 96 1012.1
20260503173804 16 101 1.6 4.8 0.00 0.03 0.03 96 1012.5
20260503173305 16 78 1.6 3.2 0.00 0.03 0.03 96 1012.5
20260503171304 16 132 0.0 3.2 0.00 0.03 0.03 95 1012.3
20260503170805 16 140 1.6 4.8 0.00 0.03 0.03 95 1012.5
20260503170304 16 144 3.2 4.8 0.00 0.03 0.03 96 1012.5
20260503150305 17 0 0.0 0.0 0.00 0.03 0.03 92 1012.9
20260503131305 17 120 1.6 4.8 0.00 0.03 0.03 92 1013.7
20260503130805 16 107 0.0 4.8 0.00 0.03 0.03 93 1013.7
20260503130305 16 174 3.2 4.8 0.00 0.03 0.03 93 1013.7
20260503110305 16 118 3.2 4.8 0.00 0.03 0.03 94 1014.1
20260503080805 16 128 4.8 9.7 0.00 0.00 0.00 86 1013.6
20260503072806 15 123 3.2 4.8 0.00 0.00 0.00 87 1013.6
20260503060305 15 82 0.0 1.6 0.00 0.00 0.00 86 1013.0
20260503054805 15 82 0.0 1.6 0.00 0.00 0.00 86 1013.1
20260503054305 15 82 0.0 3.2 0.00 0.00 0.00 86 1013.1
20260503053805 15 82 1.6 3.2 0.00 0.00 0.00 86 1013.0
20260503053305 15 82 1.6 3.2 0.00 0.00 0.00 86 1012.8
20260503052805 15 82 0.0 0.0 0.00 0.00 0.00 86 1013.2
20260503050805 15 82 0.0 0.0 0.00 0.00 0.00 85 1012.9
20260503045805 15 82 0.0 0.0 0.00 0.00 0.00 85 1013.1
20260503045305 15 82 0.0 0.0 0.00 0.00 0.00 85 1013.3
20260503035805 15 96 1.6 3.2 0.00 0.00 0.00 83 1013.3
20260503035305 15 96 1.6 3.2 0.00 0.00 0.00 83 1012.7
20260503034805 15 96 1.6 4.8 0.00 0.00 0.00 83 1013.4
20260503032805 15 167 1.6 3.2 0.00 0.00 0.00 82 1012.9
20260503032305 15 86 1.6 4.8 0.00 0.00 0.00 82 1013.2
20260503030305 15 44 3.2 4.8 0.00 0.00 0.00 83 1013.0
20260503025805 15 50 3.2 8.0 0.00 0.00 0.00 83 1013.6
20260503025305 15 36 1.6 4.8 0.00 0.00 0.00 82 1013.6
20260503024805 15 37 1.6 4.8 0.00 0.00 0.00 82 1013.1
20260503024304 15 85 1.6 3.2 0.00 0.00 0.00 82 1013.7
20260503023804 15 150 0.0 3.2 0.00 0.00 0.00 82 1013.8
20260503023305 15 150 0.0 3.2 0.00 0.00 0.00 82 1013.7
20260503021805 15 63 0.0 1.6 0.00 0.00 0.00 82 1013.2
20260503021304 15 53 1.6 4.8 0.00 0.00 0.00 83 1013.8
20260503020805 15 44 3.2 4.8 0.00 0.00 0.00 83 1013.8
20260503014805 15 43 3.2 4.8 0.00 0.00 0.00 83 1013.9
20260503012805 15 36 1.6 1.6 0.00 0.00 0.00 84 1014.4
20260503012306 15 36 1.6 3.2 0.00 0.00 0.00 84 1014.8
20260503010304 15 93 3.2 3.2 0.00 0.00 0.00 84 1014.9
20260503005805 15 93 1.6 3.2 0.00 0.00 0.00 84 1014.9
20260503003304 16 93 0.0 0.0 0.00 0.00 0.00 84 1014.9
20260503002805 16 93 0.0 1.6 0.00 0.00 0.00 84 1014.7
20260503001805 15 93 0.0 4.8 0.00 0.00 0.00 84 1014.7
20260503001305 15 24 1.6 3.2 0.00 0.00 0.00 83 1015.7
20260502235305 15 5 0.0 1.6 0.00 0.00 0.00 82 1016.0
20260502234805 15 5 0.0 1.6 0.00 0.00 0.00 82 1015.5